Flag for Germany Weather past 2 weeks in Bad Oldesloe, Schleswig-Holstein, Germany

Now
57 °F

Fog.


Feels Like: 57 °F
Forecast: 57 / 67 °F
Wind: 2 mph from North

Location: Luebeck-Blankensee

Current Time: Oct 1, 2014 at 10:46:11 PM

Latest Report: Oct 1, 2014 at 9:50 PM


Visibility: N/A

Pressure: 30.30 "Hg

Humidity: 100%

Dew point: 57 °F

Location of Bad OldesloeLocation

Historic Weather in Bad Oldesloe — Graph

°F

Bad Oldesloe temperature yesterday

Maximum temperature yesterday: 66 °F (at 3:50 PM)
Minimum temperature yesterday: 57 °F (at 6:50 AM)
Average temperature yesterday: 62 °F

Past Weeks' High & Low Weather Summary

 TemperatureHumidityPressure
High75 °F (Sep 18, 2:50 PM)100% (Sep 19, 6:50 AM)30.33 "Hg (Sep 19, 6:50 AM)
Low46 °F (Sep 23, 6:50 AM)42% (Sep 23, 2:20 PM)29.74 "Hg (Sep 24, 5:20 PM)
Average61 °F77%30.05 "Hg
* Reported Sep 16 9:20 PM — Oct 1 9:50 PM, Bad Oldesloe, Weather by CustomWeather, © 2014

Note: Actual official high and low records may vary slightly from our data, if they occured in-between our weather recording intervals... More about our weather records

Advertising

Bad Oldesloe weather history for previous 24 hours

 ConditionsComfort  
Time TempWeatherWind HumidityBarometerVisibility
9:50 PM
Oct 1
57 °FFog.2 mph100%30.30 "HgN/A
9:20 PM57 °FFog.1 mph100%30.30 "Hg2 mi
8:50 PM57 °FFog.2 mph100%30.30 "Hg3 mi
8:20 PM57 °FFog.No wind100%30.30 "Hg5 mi
7:50 PM59 °FFog.No wind94%30.30 "Hg6 mi
7:20 PM59 °FFog.No wind94%30.30 "Hg4 mi
6:50 PM61 °FSunny.1 mph94%30.30 "Hg10 mi
6:20 PM63 °FSunny.1 mph88%30.30 "Hg10 mi
5:50 PM64 °FSunny.2 mph83%30.27 "Hg10 mi
5:20 PM64 °FScattered clouds.1 mph83%30.27 "HgN/A
4:50 PM66 °FScattered showers. Broken clouds.2 mph73%30.27 "HgN/A
4:20 PM66 °FBroken clouds.1 mph73%30.27 "HgN/A
3:50 PM66 °FPartly sunny.3 mph73%30.27 "HgN/A
3:20 PM66 °FPartly sunny.6 mph73%30.27 "HgN/A
2:50 PM66 °FScattered clouds.6 mph73%30.30 "HgN/A
2:20 PM68 °FScattered clouds.5 mph69%30.30 "HgN/A
1:50 PM64 °FScattered clouds.9 mph78%30.30 "HgN/A
1:20 PM64 °FScattered clouds.6 mph73%30.30 "HgN/A
12:50 PM64 °FBroken clouds.6 mph78%30.30 "HgN/A
12:20 PM63 °FScattered clouds.5 mph83%30.30 "Hg4 mi
11:50 AM63 °FScattered clouds.5 mph83%30.30 "Hg4 mi
11:20 AM61 °FFog.5 mph88%30.30 "Hg3 mi
10:50 AM61 °FFog.3 mph88%30.30 "Hg2 mi
10:20 AM59 °FFog.5 mph94%30.30 "Hg2 mi
9:50 AM59 °FFog.3 mph94%30.30 "Hg1 mi
9:20 AM59 °FFog.3 mph94%30.30 "Hg1 mi
8:50 AM57 °FFog.3 mph100%30.27 "Hg1 mi
8:20 AM57 °FFog.6 mph100%30.27 "Hg1 mi
7:50 AM57 °FFog.5 mph100%30.27 "Hg1 mi
7:20 AM57 °FFog.5 mph100%30.27 "Hg1 mi
6:50 AM57 °FFog.3 mph100%30.27 "Hg1 mi
10:20 PM
Sep 30
61 °FFog.2 mph94%30.24 "Hg2 mi
Weather by CustomWeather, © 2014

See weather overviewHow to use our weather pages